Wetterdaten: Woche 17.11.14 - 23.11.14 (KW47)
Datum Zeit Temp. A. Feuchte A. Luftdruck Regen Wind Richtung Sonnenschein ET UV Solar Taupunkt Windchill Windben
17.11.2014 00:00 2,9 C 92 % 1006,7 hPa 0,0 l/m 0,0 km/h (0 Bft) N 0,00 h 0,000 mm 0,0 UV-I 0 W/m 1,8 C 2,9 C 0,1 km/h (0 Bft)
17.11.2014 01:00 1,9 C 94 % 1006,9 hPa 0,0 l/m 0,2 km/h (0 Bft) N 0,00 h 0,000 mm 0,0 UV-I 0 W/m 1,0 C 1,9 C 0,5 km/h (0 Bft)
17.11.2014 02:00 1,3 C 94 % 1007,3 hPa 0,0 l/m 0,0 km/h (0 Bft) N 0,00 h 0,000 mm 0,0 UV-I 0 W/m 0,4 C 1,3 C 0,0 km/h (0 Bft)
17.11.2014 03:00 0,5 C 94 % 1007,4 hPa 0,0 l/m 0,1 km/h (0 Bft) N 0,00 h 0,000 mm 0,0 UV-I 0 W/m -0,3 C 0,5 C 0,5 km/h (0 Bft)
17.11.2014 04:00 0,5 C 95 % 1007,3 hPa 0,0 l/m 3,4 km/h (1 Bft) O 0,00 h 0,000 mm 0,0 UV-I 0 W/m -0,2 C 0,3 C 7,7 km/h (2 Bft)
17.11.2014 05:00 2,8 C 97 % 1007,3 hPa 0,0 l/m 1,6 km/h (1 Bft) N 0,00 h 0,000 mm 0,0 UV-I 0 W/m 2,5 C 2,8 C 3,9 km/h (1 Bft)
17.11.2014 06:00 2,0 C 97 % 1007,3 hPa 0,0 l/m 2,3 km/h (1 Bft) O-NO 0,00 h 0,000 mm 0,0 UV-I 0 W/m 1,6 C 2,0 C 5,4 km/h (1 Bft)
17.11.2014 07:00 2,8 C 97 % 1007,7 hPa 0,0 l/m 5,3 km/h (1 Bft) SO 0,00 h 0,000 mm 0,0 UV-I 7 W/m 2,5 C 2,4 C 10,4 km/h (2 Bft)
17.11.2014 08:00 4,2 C 97 % 1008,4 hPa 0,0 l/m 3,5 km/h (1 Bft) N-NO 0,00 h 0,000 mm 0,0 UV-I 24 W/m 3,7 C 4,2 C 6,5 km/h (2 Bft)
17.11.2014 09:00 4,9 C 96 % 1008,6 hPa 0,0 l/m 2,2 km/h (1 Bft) N-NO 0,20 h 0,000 mm 0,0 UV-I 40 W/m 4,3 C 4,9 C 5,6 km/h (2 Bft)
17.11.2014 10:00 5,9 C 94 % 1008,5 hPa 0,0 l/m 4,2 km/h (1 Bft) N-NO 0,52 h 0,025 mm 0,0 UV-I 50 W/m 5,0 C 5,8 C 8,5 km/h (2 Bft)
17.11.2014 11:00 7,1 C 92 % 1008,2 hPa 0,0 l/m 5,9 km/h (2 Bft) O-NO 0,87 h 0,025 mm 0,5 UV-I 65 W/m 5,8 C 6,4 C 11,0 km/h (2 Bft)
17.11.2014 12:00 7,7 C 90 % 1007,6 hPa 0,0 l/m 8,0 km/h (2 Bft) O-NO 1,00 h 0,025 mm 0,5 UV-I 77 W/m 6,2 C 6,3 C 13,7 km/h (3 Bft)
17.11.2014 13:00 8,1 C 89 % 1007,2 hPa 0,0 l/m 5,6 km/h (2 Bft) O-NO 1,00 h 0,051 mm 0,0 UV-I 75 W/m 6,3 C 7,6 C 10,9 km/h (2 Bft)
17.11.2014 14:00 8,3 C 88 % 1007,2 hPa 0,0 l/m 5,1 km/h (1 Bft) O-NO 0,42 h 0,051 mm 0,0 UV-I 48 W/m 6,4 C 7,9 C 9,7 km/h (2 Bft)
17.11.2014 15:00 8,0 C 88 % 1007,5 hPa 0,0 l/m 3,8 km/h (1 Bft) O-NO 0,00 h 0,025 mm 0,0 UV-I 13 W/m 6,2 C 7,9 C 7,9 km/h (2 Bft)
17.11.2014 16:00 7,8 C 90 % 1007,5 hPa 0,0 l/m 5,3 km/h (1 Bft) O-NO 0,00 h 0,000 mm 0,0 UV-I 5 W/m 6,2 C 7,1 C 10,1 km/h (2 Bft)
17.11.2014 17:00 7,5 C 90 % 1007,0 hPa 0,0 l/m 6,2 km/h (2 Bft) O-NO 0,00 h 0,000 mm 0,0 UV-I 0 W/m 6,0 C 6,7 C 11,8 km/h (2 Bft)
17.11.2014 18:00 7,1 C 92 % 1007,0 hPa 0,0 l/m 2,8 km/h (1 Bft) O 0,00 h 0,000 mm 0,0 UV-I 0 W/m 5,9 C 7,1 C 6,9 km/h (2 Bft)
17.11.2014 19:00 7,3 C 92 % 1007,0 hPa 0,0 l/m 4,2 km/h (1 Bft) O 0,00 h 0,000 mm 0,0 UV-I 0 W/m 6,1 C 7,1 C 8,7 km/h (2 Bft)
17.11.2014 20:00 7,6 C 89 % 1007,4 hPa 0,0 l/m 3,8 km/h (1 Bft) O 0,00 h 0,000 mm 0,0 UV-I 0 W/m 5,9 C 7,5 C 8,9 km/h (2 Bft)
17.11.2014 21:00 7,7 C 88 % 1007,5 hPa 0,0 l/m 3,7 km/h (1 Bft) O 0,00 h 0,000 mm 0,0 UV-I 0 W/m 5,8 C 7,6 C 7,8 km/h (2 Bft)
17.11.2014 22:00 7,5 C 88 % 1007,0 hPa 0,0 l/m 4,6 km/h (1 Bft) O 0,00 h 0,000 mm 0,0 UV-I 0 W/m 5,6 C 7,1 C 9,3 km/h (2 Bft)
17.11.2014 23:00 6,9 C 90 % 1006,7 hPa 0,0 l/m 4,3 km/h (1 Bft) O 0,00 h 0,000 mm 0,0 UV-I 0 W/m 5,4 C 6,6 C 9,1 km/h (2 Bft)
18.11.2014 00:00 7,1 C 90 % 1006,6 hPa 0,0 l/m 3,3 km/h (1 Bft) O-NO 0,00 h 0,000 mm 0,0 UV-I 0 W/m 5,5 C 6,9 C 7,6 km/h (2 Bft)
18.11.2014 01:00 7,3 C 89 % 1006,4 hPa 0,0 l/m 3,6 km/h (1 Bft) O 0,00 h 0,000 mm 0,0 UV-I 0 W/m 5,6 C 7,2 C 7,8 km/h (2 Bft)
18.11.2014 02:00 7,4 C 89 % 1005,9 hPa 0,0 l/m 6,1 km/h (2 Bft) O-NO 0,00 h 0,000 mm 0,0 UV-I 0 W/m 5,7 C 6,6 C 11,9 km/h (2 Bft)
18.11.2014 03:00 7,3 C 90 % 1005,7 hPa 0,0 l/m 5,9 km/h (2 Bft) O-NO 0,00 h 0,000 mm 0,0 UV-I 0 W/m 5,8 C 6,6 C 11,3 km/h (2 Bft)
18.11.2014 04:00 7,3 C 90 % 1005,7 hPa 0,0 l/m 5,4 km/h (1 Bft) O-NO 0,00 h 0,000 mm 0,0 UV-I 0 W/m 5,8 C 6,9 C 10,5 km/h (2 Bft)
18.11.2014 05:00 7,3 C 90 % 1005,2 hPa 0,0 l/m 4,9 km/h (1 Bft) O-NO 0,00 h 0,000 mm 0,0 UV-I 0 W/m 5,8 C 6,9 C 10,0 km/h (2 Bft)
18.11.2014 06:00 7,2 C 92 % 1005,0 hPa 0,0 l/m 4,0 km/h (1 Bft) N-NO 0,00 h 0,000 mm 0,0 UV-I 0 W/m 6,0 C 7,0 C 8,8 km/h (2 Bft)
18.11.2014 07:00 7,0 C 95 % 1005,0 hPa 0,6 l/m 2,6 km/h (1 Bft) N-NO 0,00 h 0,000 mm 0,0 UV-I 0 W/m 6,1 C 7,0 C 5,5 km/h (2 Bft)
18.11.2014 08:00 7,0 C 96 % 1004,8 hPa 0,6 l/m 3,2 km/h (1 Bft) N-NO 0,00 h 0,000 mm 0,0 UV-I 8 W/m 6,4 C 7,0 C 6,4 km/h (2 Bft)
18.11.2014 09:00 7,0 C 94 % 1004,7 hPa 0,4 l/m 8,0 km/h (2 Bft) O-NO 0,17 h 0,000 mm 0,0 UV-I 32 W/m 6,0 C 5,5 C 16,5 km/h (3 Bft)
18.11.2014 10:00 6,8 C 93 % 1004,6 hPa 0,6 l/m 7,5 km/h (2 Bft) O-NO 1,00 h 0,025 mm 0,5 UV-I 79 W/m 5,7 C 5,4 C 14,3 km/h (3 Bft)
18.11.2014 11:00 6,9 C 93 % 1004,4 hPa 0,4 l/m 4,2 km/h (1 Bft) O 0,53 h 0,051 mm 0,0 UV-I 55 W/m 5,9 C 6,6 C 9,1 km/h (2 Bft)
18.11.2014 12:00 6,8 C 93 % 1004,1 hPa 0,2 l/m 6,3 km/h (2 Bft) O-NO 0,00 h 0,025 mm 0,0 UV-I 30 W/m 5,8 C 5,8 C 12,0 km/h (2 Bft)
18.11.2014 13:00 6,7 C 93 % 1004,1 hPa 0,4 l/m 3,8 km/h (1 Bft) O-NO 0,03 h 0,025 mm 0,0 UV-I 41 W/m 5,7 C 6,6 C 8,4 km/h (2 Bft)
18.11.2014 14:00 6,7 C 94 % 1004,2 hPa 0,4 l/m 1,8 km/h (1 Bft) O-NO 0,00 h 0,026 mm 0,0 UV-I 23 W/m 5,8 C 6,7 C 4,7 km/h (1 Bft)
18.11.2014 15:00 6,7 C 95 % 1004,5 hPa 0,2 l/m 0,7 km/h (0 Bft) NO 0,00 h 0,000 mm 0,0 UV-I 9 W/m 6,0 C 6,7 C 2,6 km/h (1 Bft)
18.11.2014 16:00 6,7 C 96 % 1004,7 hPa 0,2 l/m 0,4 km/h (0 Bft) N 0,00 h 0,000 mm 0,0 UV-I 0 W/m 6,0 C 6,7 C 1,5 km/h (1 Bft)
18.11.2014 17:00 6,5 C 95 % 1005,1 hPa 0,2 l/m 0,0 km/h (0 Bft) N 0,00 h 0,000 mm 0,0 UV-I 0 W/m 5,8 C 6,5 C 0,7 km/h (0 Bft)
18.11.2014 18:00 6,3 C 96 % 1005,6 hPa 0,0 l/m 0,0 km/h (0 Bft) N 0,00 h 0,000 mm 0,0 UV-I 0 W/m 5,6 C 6,3 C 0,4 km/h (0 Bft)
18.11.2014 19:00 6,2 C 96 % 1006,1 hPa 0,0 l/m 0,2 km/h (0 Bft) N 0,00 h 0,000 mm 0,0 UV-I 0 W/m 5,6 C 6,2 C 0,8 km/h (0 Bft)
18.11.2014 20:00 5,9 C 96 % 1006,6 hPa 0,4 l/m 0,9 km/h (0 Bft) W-NW 0,00 h 0,000 mm 0,0 UV-I 0 W/m 5,3 C 5,9 C 2,1 km/h (1 Bft)
18.11.2014 21:00 5,7 C 96 % 1007,3 hPa 0,0 l/m 0,2 km/h (0 Bft) W-NW 0,00 h 0,000 mm 0,0 UV-I 0 W/m 5,1 C 5,7 C 1,0 km/h (0 Bft)
18.11.2014 22:00 5,5 C 96 % 1007,6 hPa 0,2 l/m 0,0 km/h (0 Bft) N 0,00 h 0,000 mm 0,0 UV-I 0 W/m 5,0 C 5,5 C 0,2 km/h (0 Bft)
18.11.2014 23:00 5,6 C 97 % 1007,9 hPa 0,2 l/m 0,0 km/h (0 Bft) N 0,00 h 0,000 mm 0,0 UV-I 0 W/m 5,1 C 5,6 C 0,2 km/h (0 Bft)
19.11.2014 00:00 5,5 C 97 % 1008,2 hPa 0,4 l/m 0,1 km/h (0 Bft) N 0,00 h 0,000 mm 0,0 UV-I 0 W/m 5,1 C 5,5 C 0,7 km/h (0 Bft)
19.11.2014 01:00 5,6 C 97 % 1008,6 hPa 0,2 l/m 1,2 km/h (1 Bft) W-NW 0,00 h 0,000 mm 0,0 UV-I 0 W/m 5,2 C 5,6 C 2,7 km/h (1 Bft)
19.11.2014 02:00 5,6 C 97 % 1009,2 hPa 0,0 l/m 2,9 km/h (1 Bft) N 0,00 h 0,000 mm 0,0 UV-I 0 W/m 5,2 C 5,6 C 5,7 km/h (2 Bft)
19.11.2014 03:00 5,4 C 97 % 1009,8 hPa 0,0 l/m 5,0 km/h (1 Bft) N-NW 0,00 h 0,000 mm 0,0 UV-I 0 W/m 4,9 C 5,1 C 8,7 km/h (2 Bft)
19.11.2014 04:00 5,1 C 96 % 1010,6 hPa 0,0 l/m 5,1 km/h (1 Bft) N-NW 0,00 h 0,000 mm 0,0 UV-I 0 W/m 4,5 C 4,6 C 9,2 km/h (2 Bft)
19.11.2014 05:00 4,7 C 95 % 1011,5 hPa 0,0 l/m 7,3 km/h (2 Bft) N 0,00 h 0,000 mm 0,0 UV-I 0 W/m 3,9 C 3,5 C 12,2 km/h (2 Bft)
19.11.2014 06:00 4,2 C 95 % 1012,5 hPa 0,0 l/m 6,5 km/h (2 Bft) N-NW 0,00 h 0,000 mm 0,0 UV-I 0 W/m 3,4 C 3,5 C 10,3 km/h (2 Bft)
19.11.2014 07:00 4,1 C 95 % 1013,8 hPa 0,0 l/m 4,9 km/h (1 Bft) NW 0,00 h 0,000 mm 0,0 UV-I 0 W/m 3,4 C 3,9 C 8,4 km/h (2 Bft)
19.11.2014 08:00 4,1 C 95 % 1014,9 hPa 0,0 l/m 5,1 km/h (1 Bft) N-NW 0,00 h 0,000 mm 0,0 UV-I 12 W/m 3,4 C 3,8 C 8,7 km/h (2 Bft)
19.11.2014 09:00 4,1 C 95 % 1016,0 hPa 0,0 l/m 7,2 km/h (2 Bft) N-NW 0,00 h 0,000 mm 0,0 UV-I 15 W/m 3,4 C 2,9 C 12,1 km/h (2 Bft)
19.11.2014 10:00 4,2 C 94 % 1017,2 hPa 0,0 l/m 6,3 km/h (2 Bft) N-NW 0,02 h 0,000 mm 0,0 UV-I 37 W/m 3,4 C 3,4 C 10,4 km/h (2 Bft)
19.11.2014 11:00 4,4 C 93 % 1017,9 hPa 0,0 l/m 6,1 km/h (2 Bft) N-NW 0,45 h 0,025 mm 0,0 UV-I 46 W/m 3,4 C 3,7 C 10,4 km/h (2 Bft)
19.11.2014 12:00 4,5 C 93 % 1018,5 hPa 0,0 l/m 6,6 km/h (2 Bft) N-NW 0,85 h 0,025 mm 0,5 UV-I 65 W/m 3,4 C 3,5 C 10,8 km/h (2 Bft)
19.11.2014 13:00 4,3 C 92 % 1019,2 hPa 0,0 l/m 5,6 km/h (2 Bft) N-NW 0,08 h 0,025 mm 0,0 UV-I 34 W/m 3,2 C 3,8 C 9,5 km/h (2 Bft)
19.11.2014 14:00 4,3 C 93 % 1020,0 hPa 0,0 l/m 4,0 km/h (1 Bft) N-NW 0,00 h 0,027 mm 0,0 UV-I 21 W/m 3,2 C 4,1 C 6,8 km/h (2 Bft)
19.11.2014 15:00 4,3 C 93 % 1020,9 hPa 0,0 l/m 4,5 km/h (1 Bft) N-NW 0,00 h 0,000 mm 0,0 UV-I 9 W/m 3,3 C 4,2 C 7,9 km/h (2 Bft)
19.11.2014 16:00 4,2 C 94 % 1021,7 hPa 0,0 l/m 3,4 km/h (1 Bft) N-NW 0,00 h 0,000 mm 0,0 UV-I 0 W/m 3,3 C 4,2 C 6,2 km/h (2 Bft)
19.11.2014 17:00 4,2 C 94 % 1022,5 hPa 0,0 l/m 3,7 km/h (1 Bft) N-NW 0,00 h 0,000 mm 0,0 UV-I 0 W/m 3,3 C 4,1 C 6,5 km/h (2 Bft)
19.11.2014 18:00 4,2 C 94 % 1023,1 hPa 0,0 l/m 4,4 km/h (1 Bft) N-NW 0,00 h 0,000 mm 0,0 UV-I 0 W/m 3,3 C 4,0 C 7,9 km/h (2 Bft)
19.11.2014 19:00 4,1 C 94 % 1023,6 hPa 0,0 l/m 2,1 km/h (1 Bft) N 0,00 h 0,000 mm 0,0 UV-I 0 W/m 3,2 C 4,1 C 4,6 km/h (1 Bft)
19.11.2014 20:00 4,1 C 94 % 1024,4 hPa 0,0 l/m 2,2 km/h (1 Bft) N 0,00 h 0,000 mm 0,0 UV-I 0 W/m 3,3 C 4,1 C 4,1 km/h (1 Bft)
19.11.2014 21:00 4,2 C 95 % 1025,0 hPa 0,0 l/m 0,6 km/h (0 Bft) N-NW 0,00 h 0,000 mm 0,0 UV-I 0 W/m 3,5 C 4,2 C 1,8 km/h (1 Bft)
19.11.2014 22:00 4,2 C 95 % 1025,2 hPa 0,0 l/m 0,4 km/h (0 Bft) N-NW 0,00 h 0,000 mm 0,0 UV-I 0 W/m 3,5 C 4,2 C 1,4 km/h (1 Bft)
19.11.2014 23:00 4,3 C 95 % 1025,2 hPa 0,0 l/m 0,2 km/h (0 Bft) N 0,00 h 0,000 mm 0,0 UV-I 0 W/m 3,5 C 4,3 C 0,7 km/h (0 Bft)
20.11.2014 00:00 4,3 C 95 % 1025,4 hPa 0,0 l/m 0,0 km/h (0 Bft) N 0,00 h 0,000 mm 0,0 UV-I 0 W/m 3,6 C 4,3 C 0,3 km/h (0 Bft)
20.11.2014 01:00 4,3 C 95 % 1025,6 hPa 0,0 l/m 0,4 km/h (0 Bft) N-NW 0,00 h 0,000 mm 0,0 UV-I 0 W/m 3,6 C 4,3 C 1,5 km/h (1 Bft)
20.11.2014 02:00 4,3 C 96 % 1025,9 hPa 0,0 l/m 1,1 km/h (1 Bft) N-NW 0,00 h 0,000 mm 0,0 UV-I 0 W/m 3,6 C 4,3 C 2,6 km/h (1 Bft)
20.11.2014 03:00 4,1 C 96 % 1026,3 hPa 0,0 l/m 0,3 km/h (0 Bft) N 0,00 h 0,000 mm 0,0 UV-I 0 W/m 3,5 C 4,1 C 1,0 km/h (0 Bft)
20.11.2014 04:00 4,2 C 95 % 1026,3 hPa 0,0 l/m 0,3 km/h (0 Bft) N 0,00 h 0,000 mm 0,0 UV-I 0 W/m 3,4 C 4,2 C 0,9 km/h (0 Bft)
20.11.2014 05:00 4,2 C 94 % 1026,3 hPa 0,0 l/m 0,2 km/h (0 Bft) N 0,00 h 0,000 mm 0,0 UV-I 0 W/m 3,3 C 4,2 C 0,5 km/h (0 Bft)
20.11.2014 06:00 4,2 C 95 % 1026,3 hPa 0,0 l/m 0,2 km/h (0 Bft) N 0,00 h 0,000 mm 0,0 UV-I 0 W/m 3,4 C 4,2 C 0,8 km/h (0 Bft)
20.11.2014 07:00 4,2 C 95 % 1026,7 hPa 0,0 l/m 0,6 km/h (0 Bft) N 0,00 h 0,000 mm 0,0 UV-I 7 W/m 3,5 C 4,2 C 1,4 km/h (1 Bft)
20.11.2014 08:00 4,2 C 96 % 1027,3 hPa 0,0 l/m 0,3 km/h (0 Bft) N 0,00 h 0,000 mm 0,0 UV-I 16 W/m 3,7 C 4,2 C 1,1 km/h (1 Bft)
20.11.2014 09:00 4,5 C 96 % 1027,2 hPa 0,0 l/m 0,6 km/h (0 Bft) W 0,45 h 0,000 mm 0,5 UV-I 50 W/m 3,9 C 4,5 C 1,7 km/h (1 Bft)
20.11.2014 10:00 5,3 C 93 % 1027,0 hPa 0,0 l/m 0,4 km/h (0 Bft) N 1,00 h 0,025 mm 0,6 UV-I 105 W/m 4,3 C 5,3 C 1,3 km/h (1 Bft)
20.11.2014 11:00 6,0 C 90 % 1026,7 hPa 0,0 l/m 0,5 km/h (0 Bft) N-NO 1,00 h 0,051 mm 0,6 UV-I 100 W/m 4,4 C 6,0 C 1,4 km/h (1 Bft)
20.11.2014 12:00 6,1 C 89 % 1026,6 hPa 0,0 l/m 1,2 km/h (1 Bft) N 0,72 h 0,051 mm 0,6 UV-I 67 W/m 4,4 C 6,1 C 2,9 km/h (1 Bft)
20.11.2014 13:00 6,5 C 87 % 1026,3 hPa 0,0 l/m 0,3 km/h (0 Bft) N 0,92 h 0,025 mm 0,5 UV-I 76 W/m 4,6 C 6,5 C 1,0 km/h (0 Bft)
20.11.2014 14:00 6,5 C 87 % 1026,3 hPa 0,0 l/m 0,3 km/h (0 Bft) N 0,07 h 0,025 mm 0,0 UV-I 25 W/m 4,5 C 6,5 C 0,8 km/h (0 Bft)
20.11.2014 15:00 6,3 C 88 % 1026,1 hPa 0,0 l/m 1,1 km/h (1 Bft) N 0,00 h 0,000 mm 0,0 UV-I 9 W/m 4,4 C 6,3 C 2,5 km/h (1 Bft)
20.11.2014 16:00 5,9 C 90 % 1026,2 hPa 0,0 l/m 0,2 km/h (0 Bft) N 0,00 h 0,000 mm 0,0 UV-I 0 W/m 4,4 C 5,9 C 0,7 km/h (0 Bft)
20.11.2014 17:00 5,6 C 91 % 1026,0 hPa 0,0 l/m 0,4 km/h (0 Bft) N 0,00 h 0,000 mm 0,0 UV-I 0 W/m 4,3 C 5,6 C 1,3 km/h (1 Bft)
20.11.2014 18:00 5,4 C 92 % 1026,2 hPa 0,0 l/m 0,6 km/h (0 Bft) N 0,00 h 0,000 mm 0,0 UV-I 0 W/m 4,2 C 5,4 C 1,4 km/h (1 Bft)
20.11.2014 19:00 5,3 C 92 % 1026,5 hPa 0,0 l/m 2,1 km/h (1 Bft) N-NO 0,00 h 0,000 mm 0,0 UV-I 0 W/m 4,1 C 5,3 C 4,2 km/h (1 Bft)
20.11.2014 20:00 5,1 C 92 % 1026,4 hPa 0,0 l/m 0,9 km/h (0 Bft) N-NO 0,00 h 0,000 mm 0,0 UV-I 0 W/m 3,8 C 5,1 C 2,3 km/h (1 Bft)
20.11.2014 21:00 4,9 C 91 % 1026,5 hPa 0,0 l/m 0,8 km/h (0 Bft) N-NO 0,00 h 0,000 mm 0,0 UV-I 0 W/m 3,6 C 4,9 C 1,9 km/h (1 Bft)
20.11.2014 22:00 4,8 C 91 % 1026,6 hPa 0,0 l/m 1,0 km/h (0 Bft) N-NO 0,00 h 0,000 mm 0,0 UV-I 0 W/m 3,5 C 4,8 C 2,5 km/h (1 Bft)
20.11.2014 23:00 4,7 C 92 % 1026,4 hPa 0,0 l/m 0,5 km/h (0 Bft) N-NO 0,00 h 0,000 mm 0,0 UV-I 0 W/m 3,5 C 4,7 C 1,8 km/h (1 Bft)
21.11.2014 00:00 4,7 C 93 % 1026,1 hPa 0,0 l/m 0,8 km/h (0 Bft) N-NO 0,00 h 0,000 mm 0,0 UV-I 0 W/m 3,6 C 4,7 C 2,3 km/h (1 Bft)
21.11.2014 01:00 4,6 C 93 % 1026,2 hPa 0,0 l/m 0,4 km/h (0 Bft) N-NO 0,00 h 0,000 mm 0,0 UV-I 0 W/m 3,6 C 4,6 C 1,6 km/h (1 Bft)
21.11.2014 02:00 4,6 C 94 % 1026,0 hPa 0,0 l/m 0,6 km/h (0 Bft) N-NO 0,00 h 0,000 mm 0,0 UV-I 0 W/m 3,7 C 4,6 C 1,6 km/h (1 Bft)
21.11.2014 03:00 4,5 C 94 % 1025,9 hPa 0,0 l/m 0,0 km/h (0 Bft) N 0,00 h 0,000 mm 0,0 UV-I 0 W/m 3,7 C 4,5 C 0,7 km/h (0 Bft)
21.11.2014 04:00 4,6 C 94 % 1025,7 hPa 0,0 l/m 0,0 km/h (0 Bft) N 0,00 h 0,000 mm 0,0 UV-I 0 W/m 3,7 C 4,6 C 0,2 km/h (0 Bft)
21.11.2014 05:00 4,6 C 92 % 1025,6 hPa 0,0 l/m 0,7 km/h (0 Bft) N 0,00 h 0,000 mm 0,0 UV-I 0 W/m 3,3 C 4,6 C 1,9 km/h (1 Bft)
21.11.2014 06:00 4,6 C 90 % 1025,3 hPa 0,0 l/m 0,4 km/h (0 Bft) O-SO 0,00 h 0,000 mm 0,0 UV-I 0 W/m 3,0 C 4,6 C 1,8 km/h (1 Bft)
21.11.2014 07:00 4,4 C 89 % 1025,4 hPa 0,0 l/m 2,0 km/h (1 Bft) O-SO 0,00 h 0,000 mm 0,0 UV-I 5 W/m 2,9 C 4,4 C 4,1 km/h (1 Bft)
21.11.2014 08:00 4,5 C 86 % 1025,7 hPa 0,0 l/m 2,8 km/h (1 Bft) SO 0,00 h 0,000 mm 0,0 UV-I 12 W/m 2,4 C 4,3 C 5,6 km/h (2 Bft)
21.11.2014 09:00 4,6 C 85 % 1025,6 hPa 0,0 l/m 3,2 km/h (1 Bft) SO 0,00 h 0,000 mm 0,0 UV-I 25 W/m 2,3 C 4,5 C 6,2 km/h (2 Bft)
21.11.2014 10:00 4,7 C 86 % 1025,6 hPa 0,0 l/m 3,0 km/h (1 Bft) SO 0,00 h 0,025 mm 0,0 UV-I 35 W/m 2,6 C 4,7 C 6,1 km/h (2 Bft)
21.11.2014 11:00 4,8 C 84 % 1025,2 hPa 0,0 l/m 3,7 km/h (1 Bft) SO 0,33 h 0,025 mm 0,0 UV-I 47 W/m 2,4 C 4,6 C 6,8 km/h (2 Bft)
21.11.2014 12:00 4,8 C 84 % 1024,8 hPa 0,0 l/m 7,0 km/h (2 Bft) SO 0,77 h 0,025 mm 0,5 UV-I 57 W/m 2,3 C 3,6 C 11,4 km/h (2 Bft)
21.11.2014 13:00 4,9 C 84 % 1024,4 hPa 0,0 l/m 4,0 km/h (1 Bft) SO 0,23 h 0,025 mm 0,0 UV-I 43 W/m 2,4 C 4,8 C 7,4 km/h (2 Bft)
21.11.2014 14:00 4,7 C 85 % 1024,0 hPa 0,0 l/m 3,1 km/h (1 Bft) O 0,00 h 0,025 mm 0,0 UV-I 27 W/m 2,4 C 4,6 C 6,8 km/h (2 Bft)
21.11.2014 15:00 4,4 C 84 % 1023,7 hPa 0,0 l/m 3,2 km/h (1 Bft) O-SO 0,00 h 0,025 mm 0,0 UV-I 11 W/m 2,1 C 4,3 C 6,6 km/h (2 Bft)
21.11.2014 16:00 4,2 C 86 % 1023,7 hPa 0,0 l/m 2,1 km/h (1 Bft) O-SO 0,00 h 0,000 mm 0,0 UV-I 0 W/m 2,0 C 4,2 C 5,2 km/h (1 Bft)
21.11.2014 17:00 3,9 C 87 % 1023,9 hPa 0,0 l/m 1,5 km/h (1 Bft) O 0,00 h 0,000 mm 0,0 UV-I 0 W/m 1,9 C 3,9 C 4,0 km/h (1 Bft)
21.11.2014 18:00 3,6 C 88 % 1023,8 hPa 0,0 l/m 1,0 km/h (0 Bft) O 0,00 h 0,000 mm 0,0 UV-I 0 W/m 1,7 C 3,6 C 2,9 km/h (1 Bft)
21.11.2014 19:00 2,8 C 89 % 1023,6 hPa 0,0 l/m 0,4 km/h (0 Bft) O-SO 0,00 h 0,000 mm 0,0 UV-I 0 W/m 1,2 C 2,8 C 1,6 km/h (1 Bft)
21.11.2014 20:00 1,7 C 90 % 1023,6 hPa 0,0 l/m 0,4 km/h (0 Bft) O 0,00 h 0,000 mm 0,0 UV-I 0 W/m 0,2 C 1,7 C 1,4 km/h (1 Bft)
21.11.2014 21:00 0,7 C 92 % 1023,9 hPa 0,0 l/m 1,4 km/h (1 Bft) O 0,00 h 0,000 mm 0,0 UV-I 0 W/m -0,4 C 0,7 C 3,0 km/h (1 Bft)
21.11.2014 22:00 0,4 C 95 % 1024,0 hPa 0,0 l/m 0,3 km/h (0 Bft) O 0,00 h 0,000 mm 0,0 UV-I 0 W/m -0,4 C 0,4 C 1,4 km/h (1 Bft)
21.11.2014 23:00 0,2 C 95 % 1023,9 hPa 0,0 l/m 1,4 km/h (1 Bft) O-SO 0,00 h 0,000 mm 0,0 UV-I 0 W/m -0,5 C 0,2 C 3,1 km/h (1 Bft)
22.11.2014 00:00 1,4 C 97 % 1023,7 hPa 0,0 l/m 1,1 km/h (1 Bft) O-SO 0,00 h 0,000 mm 0,0 UV-I 0 W/m 1,0 C 1,4 C 3,1 km/h (1 Bft)
22.11.2014 01:00 1,9 C 96 % 1023,6 hPa 0,0 l/m 1,6 km/h (1 Bft) O-SO 0,00 h 0,000 mm 0,0 UV-I 0 W/m 1,3 C 1,9 C 3,3 km/h (1 Bft)
22.11.2014 02:00 1,7 C 94 % 1023,6 hPa 0,0 l/m 1,4 km/h (1 Bft) O-SO 0,00 h 0,000 mm 0,0 UV-I 0 W/m 0,8 C 1,7 C 3,3 km/h (1 Bft)
22.11.2014 03:00 1,4 C 94 % 1023,5 hPa 0,0 l/m 0,6 km/h (0 Bft) O 0,00 h 0,000 mm 0,0 UV-I 0 W/m 0,5 C 1,4 C 1,9 km/h (1 Bft)
22.11.2014 04:00 0,9 C 94 % 1023,3 hPa 0,0 l/m 0,4 km/h (0 Bft) O-SO 0,00 h 0,000 mm 0,0 UV-I 0 W/m 0,0 C 0,9 C 1,6 km/h (1 Bft)
22.11.2014 05:00 0,3 C 94 % 1023,6 hPa 0,0 l/m 0,0 km/h (0 Bft) N 0,00 h 0,000 mm 0,0 UV-I 0 W/m -0,6 C 0,3 C 0,4 km/h (0 Bft)
22.11.2014 06:00 -0,7 C 93 % 1023,6 hPa 0,0 l/m 0,2 km/h (0 Bft) N 0,00 h 0,000 mm 0,0 UV-I 0 W/m -1,7 C -0,7 C 1,0 km/h (0 Bft)
22.11.2014 07:00 -1,2 C 94 % 1024,1 hPa 0,0 l/m 0,1 km/h (0 Bft) N 0,00 h 0,000 mm 0,0 UV-I 10 W/m -2,0 C -1,2 C 0,2 km/h (0 Bft)
22.11.2014 08:00 -1,2 C 95 % 1024,4 hPa 0,0 l/m 0,1 km/h (0 Bft) N 0,35 h 0,000 mm 0,0 UV-I 47 W/m -1,8 C -1,2 C 0,3 km/h (0 Bft)
22.11.2014 09:00 1,8 C 95 % 1024,8 hPa 0,0 l/m 0,1 km/h (0 Bft) N 1,00 h 0,025 mm 0,6 UV-I 195 W/m 1,0 C 1,8 C 0,5 km/h (0 Bft)
22.11.2014 10:00 4,3 C 88 % 1025,1 hPa 0,0 l/m 2,0 km/h (1 Bft) SO 1,00 h 0,076 mm 0,9 UV-I 261 W/m 2,5 C 4,3 C 4,3 km/h (1 Bft)
22.11.2014 11:00 5,4 C 85 % 1024,9 hPa 0,0 l/m 2,6 km/h (1 Bft) O-NO 1,00 h 0,102 mm 1,1 UV-I 338 W/m 3,1 C 5,4 C 5,6 km/h (2 Bft)
22.11.2014 12:00 5,7 C 84 % 1024,6 hPa 0,0 l/m 3,0 km/h (1 Bft) O 1,00 h 0,127 mm 1,0 UV-I 278 W/m 3,2 C 5,7 C 6,5 km/h (2 Bft)
22.11.2014 13:00 5,3 C 85 % 1024,3 hPa 0,0 l/m 2,7 km/h (1 Bft) O-NO 1,00 h 0,127 mm 0,8 UV-I 199 W/m 2,9 C 5,3 C 6,0 km/h (2 Bft)
22.11.2014 14:00 4,8 C 86 % 1024,2 hPa 0,0 l/m 3,2 km/h (1 Bft) O 1,00 h 0,076 mm 0,5 UV-I 116 W/m 2,6 C 4,7 C 6,6 km/h (2 Bft)
22.11.2014 15:00 4,1 C 88 % 1024,4 hPa 0,0 l/m 2,3 km/h (1 Bft) O-NO 0,57 h 0,051 mm 0,0 UV-I 46 W/m 2,3 C 4,1 C 4,8 km/h (1 Bft)
22.11.2014 16:00 3,0 C 90 % 1024,8 hPa 0,0 l/m 2,9 km/h (1 Bft) O 0,00 h 0,025 mm 0,0 UV-I 7 W/m 1,5 C 3,1 C 6,3 km/h (2 Bft)
22.11.2014 17:00 2,1 C 92 % 1025,0 hPa 0,0 l/m 1,3 km/h (1 Bft) O-NO 0,00 h 0,000 mm 0,0 UV-I 0 W/m 1,0 C 2,1 C 3,6 km/h (1 Bft)
22.11.2014 18:00 1,7 C 94 % 1025,2 hPa 0,0 l/m 2,0 km/h (1 Bft) O 0,00 h 0,000 mm 0,0 UV-I 0 W/m 0,9 C 1,7 C 4,6 km/h (1 Bft)
22.11.2014 19:00 1,2 C 94 % 1025,1 hPa 0,0 l/m 0,7 km/h (0 Bft) N 0,00 h 0,000 mm 0,0 UV-I 0 W/m 0,4 C 1,2 C 1,9 km/h (1 Bft)
22.11.2014 20:00 1,2 C 95 % 1025,2 hPa 0,0 l/m 3,1 km/h (1 Bft) O 0,00 h 0,000 mm 0,0 UV-I 0 W/m 0,6 C 1,2 C 6,7 km/h (2 Bft)
22.11.2014 21:00 1,3 C 96 % 1025,6 hPa 0,0 l/m 2,7 km/h (1 Bft) O 0,00 h 0,000 mm 0,0 UV-I 0 W/m 0,7 C 1,3 C 6,1 km/h (2 Bft)
22.11.2014 22:00 0,8 C 95 % 1025,6 hPa 0,0 l/m 0,0 km/h (0 Bft) N 0,00 h 0,000 mm 0,0 UV-I 0 W/m 0,0 C 0,8 C 0,3 km/h (0 Bft)
22.11.2014 23:00 -0,1 C 95 % 1026,1 hPa 0,0 l/m 0,0 km/h (0 Bft) N 0,00 h 0,000 mm 0,0 UV-I 0 W/m -0,9 C -0,1 C 0,1 km/h (0 Bft)
23.11.2014 00:00 -0,7 C 94 % 1026,2 hPa 0,0 l/m 0,0 km/h (0 Bft) N 0,00 h 0,000 mm 0,0 UV-I 0 W/m -1,5 C -0,7 C 0,1 km/h (0 Bft)
23.11.2014 01:00 -1,2 C 95 % 1026,3 hPa 0,0 l/m 0,0 km/h (0 Bft) N 0,00 h 0,000 mm 0,0 UV-I 0 W/m -1,9 C -1,2 C 0,0 km/h (0 Bft)
23.11.2014 02:00 -1,5 C 95 % 1026,3 hPa 0,0 l/m 0,0 km/h (0 Bft) N 0,00 h 0,000 mm 0,0 UV-I 0 W/m -2,2 C -1,5 C 0,0 km/h (0 Bft)
23.11.2014 03:00 -1,4 C 96 % 1026,0 hPa 0,0 l/m 1,9 km/h (1 Bft) O-NO 0,00 h 0,000 mm 0,0 UV-I 0 W/m -1,9 C -1,4 C 4,6 km/h (1 Bft)
23.11.2014 04:00 -1,3 C 96 % 1025,5 hPa 0,0 l/m 0,3 km/h (0 Bft) N 0,00 h 0,000 mm 0,0 UV-I 0 W/m -1,8 C -1,3 C 1,1 km/h (1 Bft)
23.11.2014 05:00 -1,7 C 96 % 1025,6 hPa 0,0 l/m 0,3 km/h (0 Bft) O-NO 0,00 h 0,000 mm 0,0 UV-I 0 W/m -2,3 C -1,7 C 1,4 km/h (1 Bft)
23.11.2014 06:00 -1,6 C 96 % 1026,1 hPa 0,0 l/m 2,0 km/h (1 Bft) N-NO 0,00 h 0,000 mm 0,0 UV-I 0 W/m -2,1 C -1,6 C 3,7 km/h (1 Bft)
23.11.2014 07:00 -0,7 C 97 % 1026,4 hPa 0,0 l/m 0,8 km/h (0 Bft) N 0,00 h 0,000 mm 0,0 UV-I 9 W/m -1,1 C -0,7 C 2,2 km/h (1 Bft)
23.11.2014 08:00 0,3 C 98 % 1026,9 hPa 0,0 l/m 1,3 km/h (1 Bft) N-NO 0,67 h 0,000 mm 0,0 UV-I 66 W/m -0,0 C 0,3 C 4,1 km/h (1 Bft)
23.11.2014 09:00 2,4 C 94 % 1027,0 hPa 0,0 l/m 0,6 km/h (0 Bft) N 1,00 h 0,025 mm 0,6 UV-I 190 W/m 1,6 C 2,4 C 2,2 km/h (1 Bft)
23.11.2014 10:00 4,3 C 88 % 1027,1 hPa 0,0 l/m 4,7 km/h (1 Bft) O-NO 1,00 h 0,076 mm 0,9 UV-I 298 W/m 2,5 C 3,9 C 8,8 km/h (2 Bft)
23.11.2014 11:00 5,3 C 84 % 1027,1 hPa 0,0 l/m 8,0 km/h (2 Bft) O-NO 1,00 h 0,127 mm 1,2 UV-I 340 W/m 2,9 C 3,6 C 13,4 km/h (3 Bft)
23.11.2014 12:00 5,6 C 84 % 1026,4 hPa 0,0 l/m 9,1 km/h (2 Bft) O-NO 1,00 h 0,152 mm 1,1 UV-I 334 W/m 3,1 C 3,5 C 14,3 km/h (3 Bft)
23.11.2014 13:00 5,4 C 84 % 1026,0 hPa 0,0 l/m 9,9 km/h (2 Bft) O-NO 1,00 h 0,152 mm 0,9 UV-I 279 W/m 3,0 C 2,7 C 16,4 km/h (3 Bft)
23.11.2014 14:00 4,7 C 86 % 1025,7 hPa 0,0 l/m 6,5 km/h (2 Bft) O-NO 0,93 h 0,127 mm 0,6 UV-I 156 W/m 2,6 C 3,7 C 12,2 km/h (2 Bft)
23.11.2014 15:00 3,3 C 90 % 1025,3 hPa 0,0 l/m 5,1 km/h (1 Bft) O-NO 0,37 h 0,076 mm 0,0 UV-I 42 W/m 1,8 C 2,9 C 10,2 km/h (2 Bft)
23.11.2014 16:00 2,3 C 92 % 1025,6 hPa 0,0 l/m 3,2 km/h (1 Bft) O-NO 0,00 h 0,025 mm 0,0 UV-I 8 W/m 1,2 C 2,3 C 6,5 km/h (2 Bft)
23.11.2014 17:00 2,0 C 94 % 1025,5 hPa 0,0 l/m 4,6 km/h (1 Bft) O 0,00 h 0,000 mm 0,0 UV-I 0 W/m 1,2 C 1,6 C 9,5 km/h (2 Bft)
23.11.2014 18:00 2,1 C 95 % 1025,3 hPa 0,0 l/m 3,8 km/h (1 Bft) O 0,00 h 0,000 mm 0,0 UV-I 0 W/m 1,4 C 1,9 C 8,6 km/h (2 Bft)
23.11.2014 19:00 2,3 C 96 % 1025,3 hPa 0,0 l/m 2,5 km/h (1 Bft) O 0,00 h 0,000 mm 0,0 UV-I 0 W/m 1,7 C 2,3 C 6,5 km/h (2 Bft)
23.11.2014 20:00 2,6 C 96 % 1024,6 hPa 0,0 l/m 4,0 km/h (1 Bft) O-SO 0,00 h 0,000 mm 0,0 UV-I 0 W/m 2,0 C 2,4 C 9,3 km/h (2 Bft)
23.11.2014 21:00 2,4 C 96 % 1025,2 hPa 0,0 l/m 2,3 km/h (1 Bft) O-SO 0,00 h 0,000 mm 0,0 UV-I 0 W/m 1,8 C 2,4 C 4,4 km/h (1 Bft)
23.11.2014 22:00 2,7 C 96 % 1024,8 hPa 0,0 l/m 1,3 km/h (1 Bft) O 0,00 h 0,000 mm 0,0 UV-I 0 W/m 2,2 C 2,7 C 3,5 km/h (1 Bft)
23.11.2014 23:00 2,6 C 96 % 1024,8 hPa 0,0 l/m 0,5 km/h (0 Bft) N 0,00 h 0,000 mm 0,0 UV-I 0 W/m 2,1 C 2,6 C 1,6 km/h (1 Bft)
Min-Datum _ 23.11.14 22.11.14 18.11.14 - 17.11.14 - - - - - 23.11.14 23.11.14 17.11.14
_ Min-Zeit 05:51 12:02 12:37 - 00:00 - - - - - 05:52 17:14 00:00
Minimum _ -1,9 C 82 % 1004,0 hPa - 0,0 km/h (0 Bft) - - - - - -2,5 C -3,3 C 0,0 km/h (0 Bft)
Max-Datum _ 17.11.14 17.11.14 20.11.14 18.11.14 18.11.14 - 22.11.14 23.11.14 22.11.14 22.11.14 17.11.14 17.11.14 18.11.14
_ Max-Zeit 14:11 04:54 08:31 07:24 09:42 - 08:56 12:00 11:59 11:16 13:54 14:17 09:39
Maximum _ 8,4 C 98 % 1027,5 hPa 0,6 l/m 17,7 km/h
O-NO (3 Bft)
- 0,10 h 0,152 mm 1,2 UV-I 380 W/m 6,6 C 8,4 C 27,4 km/h
O (5 Bft)
Durchschnitt _ 4,2 C 92 % 1018,9 hPa #5,6 l/m 2,5 km/h (1 Bft) N #26:30 h #2,152 mm 0,7 UV-I 76 W/m 3,0 C 4,0 C 5,1 km/h (1 Bft)